Time,TemperatureF,DewpointF,PressureIn,WindDirection,WindDirectionDegrees,WindSpeedMPH,WindSpeedGustMPH,Humidity,HourlyPrecipIn,Conditions,Clouds,dailyrainin,SoftwareType,DateUTC
2013-12-22 00:02:00,59.9,54.7,29.90,South,180,0.7,1.6,83,0.00,,,0.00,Annie Weather 1.0,2013-12-22 05:02:00,
2013-12-22 00:04:00,59.9,55.1,29.90,NE,45,0.0,0.7,84,0.00,,,0.00,Annie Weather 1.0,2013-12-22 05:04:00,
2013-12-22 00:06:00,59.7,54.5,29.91,South,180,0.0,0.7,83,0.00,,,0.00,Annie Weather 1.0,2013-12-22 05:06:00,
2013-12-22 00:10:00,59.9,55.1,29.91,NW,315,0.0,0.0,84,0.00,,,0.00,Annie Weather 1.0,2013-12-22 05:10:00,
2013-12-22 00:16:00,59.4,54.5,29.90,East,90,1.6,2.2,84,0.00,,,0.00,Annie Weather 1.0,2013-12-22 05:16:00,
2013-12-22 00:18:00,59.4,54.5,29.90,East,90,1.6,2.2,84,0.00,,,0.00,Annie Weather 1.0,2013-12-22 05:18:00,
2013-12-22 00:22:00,59.0,54.2,29.90,East,90,1.6,2.2,84,0.00,,,0.00,Annie Weather 1.0,2013-12-22 05:22:00,
2013-12-22 00:28:00,58.3,53.5,29.90,East,90,1.6,2.2,84,0.00,,,0.00,Annie Weather 1.0,2013-12-22 05:28:00,
2013-12-22 00:34:00,57.9,53.4,29.90,East,90,0.7,1.6,85,0.00,,,0.00,Annie Weather 1.0,2013-12-22 05:34:00,
2013-12-22 00:40:00,57.7,53.3,29.89,South,180,0.7,1.6,85,0.00,,,0.00,Annie Weather 1.0,2013-12-22 05:40:00,
2013-12-22 00:46:00,57.6,53.1,29.89,East,90,1.6,2.2,85,0.00,,,0.00,Annie Weather 1.0,2013-12-22 05:46:00,
2013-12-22 00:52:00,57.4,52.9,29.88,SE,135,0.0,0.0,85,0.00,,,0.00,Annie Weather 1.0,2013-12-22 05:52:00,
2013-12-22 00:58:00,57.6,53.4,29.88,East,90,0.0,0.0,86,0.00,,,0.00,Annie Weather 1.0,2013-12-22 05:58:00,
2013-12-22 01:04:00,57.6,53.4,29.88,East,90,0.7,2.2,86,0.00,,,0.00,Annie Weather 1.0,2013-12-22 06:04:00,
2013-12-22 01:10:00,58.3,54.4,29.88,North,0,0.0,0.0,87,0.00,,,0.00,Annie Weather 1.0,2013-12-22 06:10:00,
2013-12-22 01:16:00,58.6,54.8,29.87,East,90,2.2,3.8,87,0.00,,,0.00,Annie Weather 1.0,2013-12-22 06:16:00,
2013-12-22 01:22:00,62.1,57.8,29.87,East,90,1.6,6.0,86,0.00,,,0.00,Annie Weather 1.0,2013-12-22 06:22:00,
2013-12-22 01:28:00,62.4,58.5,29.87,South,180,3.1,6.9,87,0.00,,,0.00,Annie Weather 1.0,2013-12-22 06:28:00,
2013-12-22 01:34:00,64.2,59.9,29.87,SE,135,0.7,2.2,86,0.00,,,0.00,Annie Weather 1.0,2013-12-22 06:34:00,
2013-12-22 01:40:00,66.0,61.4,29.87,West,270,1.6,3.1,85,0.00,,,0.00,Annie Weather 1.0,2013-12-22 06:40:00,
2013-12-22 01:46:00,66.4,61.1,29.87,SW,225,6.9,12.1,83,0.00,,,0.00,Annie Weather 1.0,2013-12-22 06:46:00,
2013-12-22 01:52:00,66.9,61.2,29.87,South,180,5.4,13.0,82,0.00,,,0.00,Annie Weather 1.0,2013-12-22 06:52:00,
2013-12-22 01:58:00,67.5,61.4,29.87,West,270,5.4,6.9,81,0.00,,,0.00,Annie Weather 1.0,2013-12-22 06:58:00,
2013-12-22 02:04:00,67.5,61.1,29.88,West,270,2.2,6.0,80,0.00,,,0.00,Annie Weather 1.0,2013-12-22 07:04:00,
2013-12-22 02:10:00,66.7,60.4,29.87,West,270,3.8,7.6,80,0.00,,,0.00,Annie Weather 1.0,2013-12-22 07:10:00,
2013-12-22 02:14:00,67.8,61.4,29.87,North,0,1.6,3.1,80,0.00,,,0.00,Annie Weather 1.0,2013-12-22 07:14:00,
2013-12-22 02:20:00,67.5,61.1,29.88,South,180,2.2,5.4,80,0.00,,,0.00,Annie Weather 1.0,2013-12-22 07:20:00,
2013-12-22 02:26:00,67.5,61.1,29.87,South,180,3.1,6.0,80,0.00,,,0.00,Annie Weather 1.0,2013-12-22 07:26:00,
2013-12-22 02:32:00,67.8,61.1,29.86,SW,225,6.9,9.8,79,0.00,,,0.00,Annie Weather 1.0,2013-12-22 07:32:00,
2013-12-22 02:38:00,68.2,61.1,29.86,West,270,4.5,7.6,78,0.00,,,0.00,Annie Weather 1.0,2013-12-22 07:38:00,
2013-12-22 02:44:00,68.4,61.2,29.86,SW,225,2.2,3.8,78,0.00,,,0.00,Annie Weather 1.0,2013-12-22 07:44:00,
2013-12-22 02:50:00,68.4,60.9,29.87,South,180,9.8,14.5,77,0.00,,,0.00,Annie Weather 1.0,2013-12-22 07:50:00,
2013-12-22 02:56:00,68.4,60.9,29.86,South,180,4.5,7.6,77,0.00,,,0.00,Annie Weather 1.0,2013-12-22 07:56:00,
2013-12-22 03:02:00,68.7,61.6,29.86,South,180,7.6,11.4,78,0.00,,,0.00,Annie Weather 1.0,2013-12-22 08:02:00,
2013-12-22 03:08:00,68.5,61.0,29.86,South,180,1.6,3.1,77,0.00,,,0.00,Annie Weather 1.0,2013-12-22 08:08:00,
2013-12-22 03:14:00,68.7,61.2,29.86,West,270,4.5,10.7,77,0.00,,,0.00,Annie Weather 1.0,2013-12-22 08:14:00,
2013-12-22 03:20:00,69.3,61.7,29.85,South,180,6.0,13.0,77,0.00,,,0.00,Annie Weather 1.0,2013-12-22 08:20:00,
2013-12-22 03:26:00,69.1,61.2,29.84,South,180,9.8,16.8,76,0.00,,,0.00,Annie Weather 1.0,2013-12-22 08:26:00,
2013-12-22 03:32:00,68.9,61.0,29.83,South,180,10.7,19.0,76,0.00,,,0.00,Annie Weather 1.0,2013-12-22 08:32:00,
2013-12-22 03:38:00,69.1,61.2,29.84,South,180,8.3,12.1,76,0.00,,,0.00,Annie Weather 1.0,2013-12-22 08:38:00,
2013-12-22 03:44:00,68.9,61.0,29.83,SW,225,4.5,9.2,76,0.00,,,0.00,Annie Weather 1.0,2013-12-22 08:44:00,
2013-12-22 03:50:00,68.9,61.0,29.83,North,0,7.6,9.8,76,0.00,,,0.00,Annie Weather 1.0,2013-12-22 08:50:00,
2013-12-22 03:56:00,69.1,61.2,29.83,South,180,7.6,13.0,76,0.00,,,0.00,Annie Weather 1.0,2013-12-22 08:56:00,
2013-12-22 04:02:00,69.1,61.2,29.83,SE,135,10.7,16.8,76,0.00,,,0.00,Annie Weather 1.0,2013-12-22 09:02:00,
2013-12-22 04:08:00,69.1,61.2,29.83,SE,135,9.8,16.8,76,0.00,,,0.00,Annie Weather 1.0,2013-12-22 09:08:00,
2013-12-22 04:14:00,69.1,61.2,29.81,SE,135,8.3,18.3,76,0.00,,,0.00,Annie Weather 1.0,2013-12-22 09:14:00,
2013-12-22 04:20:00,69.3,61.7,29.82,South,180,7.6,10.7,77,0.00,,,0.00,Annie Weather 1.0,2013-12-22 09:20:00,
2013-12-22 04:26:00,69.1,61.2,29.81,South,180,9.2,19.7,76,0.00,,,0.00,Annie Weather 1.0,2013-12-22 09:26:00,
2013-12-22 04:32:00,69.4,61.5,29.81,SE,135,8.3,13.6,76,0.00,,,0.00,Annie Weather 1.0,2013-12-22 09:32:00,
2013-12-22 04:38:00,69.6,61.7,29.82,West,270,7.6,12.1,76,0.00,,,0.00,Annie Weather 1.0,2013-12-22 09:38:00,
2013-12-22 04:44:00,69.6,61.7,29.82,SE,135,7.6,15.9,76,0.00,,,0.00,Annie Weather 1.0,2013-12-22 09:44:00,
2013-12-22 04:50:00,69.6,61.3,29.81,South,180,6.0,12.1,75,0.00,,,0.00,Annie Weather 1.0,2013-12-22 09:50:00,
2013-12-22 04:56:00,69.8,61.1,29.81,East,90,7.6,11.4,74,0.00,,,0.00,Annie Weather 1.0,2013-12-22 09:56:00,
2013-12-22 05:02:00,69.8,61.1,29.82,SW,225,6.9,9.2,74,0.00,,,0.00,Annie Weather 1.0,2013-12-22 10:02:00,
2013-12-22 05:08:00,70.2,61.5,29.81,South,180,10.7,15.2,74,0.00,,,0.00,Annie Weather 1.0,2013-12-22 10:08:00,
2013-12-22 05:14:00,70.2,61.5,29.83,East,90,6.9,14.5,74,0.00,,,0.00,Annie Weather 1.0,2013-12-22 10:14:00,
2013-12-22 05:20:00,70.3,61.6,29.83,South,180,9.2,19.7,74,0.00,,,0.00,Annie Weather 1.0,2013-12-22 10:20:00,
2013-12-22 05:26:00,70.0,61.3,29.83,SW,225,3.8,6.0,74,0.00,,,0.00,Annie Weather 1.0,2013-12-22 10:26:00,
2013-12-22 05:32:00,70.2,61.5,29.83,SW,225,8.3,12.1,74,0.00,,,0.00,Annie Weather 1.0,2013-12-22 10:32:00,
2013-12-22 05:38:00,69.8,61.1,29.84,South,180,4.5,8.3,74,0.00,,,0.00,Annie Weather 1.0,2013-12-22 10:38:00,
2013-12-22 05:44:00,70.3,61.6,29.84,SW,225,11.4,15.9,74,0.00,,,0.00,Annie Weather 1.0,2013-12-22 10:44:00,
2013-12-22 05:50:00,70.3,61.6,29.84,South,180,6.9,11.4,74,0.00,,,0.00,Annie Weather 1.0,2013-12-22 10:50:00,
2013-12-22 05:56:00,70.2,61.5,29.84,South,180,5.4,6.9,74,0.00,,,0.00,Annie Weather 1.0,2013-12-22 10:56:00,
2013-12-22 06:02:00,70.2,61.5,29.83,SW,225,9.8,21.3,74,0.00,,,0.00,Annie Weather 1.0,2013-12-22 11:02:00,
2013-12-22 06:08:00,70.0,61.3,29.82,NW,315,7.6,11.4,74,0.00,,,0.00,Annie Weather 1.0,2013-12-22 11:08:00,
2013-12-22 06:14:00,70.0,60.9,29.84,South,180,7.6,14.5,73,0.00,,,0.00,Annie Weather 1.0,2013-12-22 11:14:00,
2013-12-22 06:20:00,70.3,61.6,29.84,SW,225,4.5,7.6,74,0.00,,,0.00,Annie Weather 1.0,2013-12-22 11:20:00,
2013-12-22 06:26:00,70.0,61.3,29.85,North,0,3.1,6.9,74,0.00,,,0.00,Annie Weather 1.0,2013-12-22 11:26:00,
2013-12-22 06:32:00,69.8,61.1,29.85,NE,45,10.7,19.7,74,0.00,,,0.00,Annie Weather 1.0,2013-12-22 11:32:00,
2013-12-22 06:38:00,70.0,61.3,29.85,South,180,6.9,9.2,74,0.00,,,0.00,Annie Weather 1.0,2013-12-22 11:38:00,
2013-12-22 06:44:00,69.8,61.1,29.85,West,270,4.5,9.2,74,0.00,,,0.00,Annie Weather 1.0,2013-12-22 11:44:00,
2013-12-22 06:50:00,69.8,61.1,29.86,South,180,4.5,6.0,74,0.00,,,0.00,Annie Weather 1.0,2013-12-22 11:50:00,
2013-12-22 06:56:00,70.2,61.5,29.86,South,180,6.0,14.5,74,0.00,,,0.00,Annie Weather 1.0,2013-12-22 11:56:00,
2013-12-22 07:02:00,70.3,61.6,29.86,SE,135,9.2,10.7,74,0.00,,,0.00,Annie Weather 1.0,2013-12-22 12:02:00,
2013-12-22 07:08:00,70.3,61.6,29.86,SE,135,9.2,10.7,74,0.00,,,0.00,Annie Weather 1.0,2013-12-22 12:08:00,
2013-12-22 07:14:00,70.3,61.3,29.87,West,270,9.2,18.3,73,0.00,,,0.00,Annie Weather 1.0,2013-12-22 12:14:00,
2013-12-22 07:20:00,70.2,61.1,29.87,South,180,9.2,16.8,73,0.00,,,0.00,Annie Weather 1.0,2013-12-22 12:20:00,
2013-12-22 07:26:00,70.3,61.3,29.87,South,180,8.3,13.0,73,0.00,,,0.00,Annie Weather 1.0,2013-12-22 12:26:00,
2013-12-22 07:32:00,70.5,61.4,29.88,South,180,3.8,6.9,73,0.00,,,0.00,Annie Weather 1.0,2013-12-22 12:32:00,
2013-12-22 07:38:00,70.3,61.3,29.88,SW,225,7.6,14.5,73,0.00,,,0.00,Annie Weather 1.0,2013-12-22 12:38:00,
2013-12-22 07:44:00,70.9,61.8,29.87,SE,135,6.9,9.2,73,0.00,,,0.00,Annie Weather 1.0,2013-12-22 12:44:00,
2013-12-22 07:50:00,70.9,61.4,29.88,South,180,4.5,6.9,72,0.00,,,0.00,Annie Weather 1.0,2013-12-22 12:50:00,
2013-12-22 07:56:00,71.1,61.6,29.88,East,90,3.1,6.0,72,0.00,,,0.00,Annie Weather 1.0,2013-12-22 12:56:00,
2013-12-22 08:02:00,71.1,62.0,29.87,North,0,8.3,11.4,73,0.00,,,0.00,Annie Weather 1.0,2013-12-22 13:02:00,
2013-12-22 08:08:00,71.1,61.6,29.88,South,180,7.6,14.5,72,0.00,,,0.00,Annie Weather 1.0,2013-12-22 13:08:00,
2013-12-22 08:14:00,71.1,61.6,29.88,South,180,8.3,13.0,72,0.00,,,0.00,Annie Weather 1.0,2013-12-22 13:14:00,
2013-12-22 08:20:00,71.2,61.7,29.88,SW,225,9.2,19.0,72,0.00,,,0.00,Annie Weather 1.0,2013-12-22 13:20:00,
2013-12-22 08:26:00,71.1,61.6,29.89,West,270,6.0,11.4,72,0.00,,,0.00,Annie Weather 1.0,2013-12-22 13:26:00,
2013-12-22 08:32:00,71.1,61.6,29.91,West,270,5.4,8.3,72,0.00,,,0.00,Annie Weather 1.0,2013-12-22 13:32:00,
2013-12-22 08:38:00,71.6,61.7,29.92,North,0,3.1,5.4,71,0.00,,,0.00,Annie Weather 1.0,2013-12-22 13:38:00,
2013-12-22 08:44:00,70.3,60.1,29.93,North,0,5.4,7.6,70,0.01,,,0.01,Annie Weather 1.0,2013-12-22 13:44:00,
2013-12-22 08:50:00,65.8,59.5,29.94,West,270,2.2,3.1,80,0.06,,,0.06,Annie Weather 1.0,2013-12-22 13:50:00,
2013-12-22 08:56:00,64.8,60.5,29.95,West,270,3.1,3.8,86,0.11,,,0.11,Annie Weather 1.0,2013-12-22 13:56:00,
2013-12-22 09:02:00,64.4,60.4,29.95,West,270,0.0,0.7,87,0.11,,,0.11,Annie Weather 1.0,2013-12-22 14:02:00,
2013-12-22 09:08:00,63.7,60.1,29.95,SW,225,0.7,2.2,88,0.12,,,0.12,Annie Weather 1.0,2013-12-22 14:08:00,
2013-12-22 09:14:00,63.9,60.6,29.95,North,0,3.1,4.5,89,0.12,,,0.12,Annie Weather 1.0,2013-12-22 14:14:00,
2013-12-22 11:04:00,62.4,60.1,29.98,South,180,0.0,0.0,92,0.00,,,0.27,Annie Weather 1.0,2013-12-22 16:04:00,
2013-12-22 11:10:00,62.2,60.2,29.99,South,180,0.7,2.2,93,0.00,,,0.27,Annie Weather 1.0,2013-12-22 16:10:00,
2013-12-22 11:16:00,62.2,60.2,29.98,SE,135,0.7,1.6,93,0.00,,,0.27,Annie Weather 1.0,2013-12-22 16:16:00,
2013-12-22 11:22:00,62.2,60.2,29.97,SE,135,0.7,1.6,93,0.02,,,0.29,Annie Weather 1.0,2013-12-22 16:22:00,
2013-12-22 11:28:00,62.1,60.0,29.97,SE,135,0.7,1.6,93,0.03,,,0.30,Annie Weather 1.0,2013-12-22 16:28:00,
2013-12-22 11:34:00,62.1,60.0,29.97,SE,135,2.2,3.8,93,0.03,,,0.30,Annie Weather 1.0,2013-12-22 16:34:00,
2013-12-22 11:40:00,61.9,59.8,29.96,SE,135,3.1,4.5,93,0.04,,,0.31,Annie Weather 1.0,2013-12-22 16:40:00,
2013-12-22 11:46:00,61.9,59.8,29.96,South,180,1.6,2.2,93,0.04,,,0.31,Annie Weather 1.0,2013-12-22 16:46:00,
2013-12-22 11:52:00,61.9,59.8,29.95,South,180,0.7,1.6,93,0.05,,,0.32,Annie Weather 1.0,2013-12-22 16:52:00,
2013-12-22 11:58:00,61.7,59.7,29.96,South,180,1.6,3.1,93,0.05,,,0.32,Annie Weather 1.0,2013-12-22 16:58:00,
2013-12-22 12:04:00,61.5,59.5,29.96,South,180,1.6,2.2,93,0.06,,,0.33,Annie Weather 1.0,2013-12-22 17:04:00,
2013-12-22 12:10:00,61.3,59.3,29.96,SE,135,1.6,3.1,93,0.07,,,0.34,Annie Weather 1.0,2013-12-22 17:10:00,
2013-12-22 12:16:00,61.3,59.3,29.96,SE,135,0.7,2.2,93,0.10,,,0.37,Annie Weather 1.0,2013-12-22 17:16:00,
2013-12-22 12:22:00,61.3,59.3,29.96,South,180,1.6,3.1,93,0.09,,,0.38,Annie Weather 1.0,2013-12-22 17:22:00,
2013-12-22 12:28:00,61.3,59.3,29.95,SE,135,4.5,8.3,93,0.09,,,0.39,Annie Weather 1.0,2013-12-22 17:28:00,
2013-12-22 12:34:00,61.3,59.3,29.95,South,180,2.2,3.8,93,0.10,,,0.40,Annie Weather 1.0,2013-12-22 17:34:00,
2013-12-22 12:40:00,61.2,59.1,29.94,SE,135,1.6,2.2,93,0.11,,,0.42,Annie Weather 1.0,2013-12-22 17:40:00,
2013-12-22 12:46:00,61.2,59.1,29.94,South,180,3.1,4.5,93,0.11,,,0.42,Annie Weather 1.0,2013-12-22 17:46:00,
2013-12-22 12:52:00,61.2,59.1,29.94,SE,135,2.2,3.8,93,0.10,,,0.42,Annie Weather 1.0,2013-12-22 17:52:00,
2013-12-22 12:58:00,61.2,59.1,29.93,SE,135,1.6,3.1,93,0.11,,,0.43,Annie Weather 1.0,2013-12-22 17:58:00,
2013-12-22 13:04:00,61.2,59.1,29.92,SE,135,2.2,3.8,93,0.10,,,0.43,Annie Weather 1.0,2013-12-22 18:04:00,
2013-12-22 13:10:00,61.3,59.3,29.93,SW,225,0.7,2.2,93,0.09,,,0.43,Annie Weather 1.0,2013-12-22 18:10:00,
2013-12-22 13:16:00,61.0,58.9,29.92,East,90,3.1,6.0,93,0.06,,,0.43,Annie Weather 1.0,2013-12-22 18:16:00,
2013-12-22 13:22:00,61.0,58.9,29.92,SE,135,2.2,4.5,93,0.05,,,0.43,Annie Weather 1.0,2013-12-22 18:22:00,
2013-12-22 13:28:00,61.0,58.9,29.93,SE,135,3.1,5.4,93,0.04,,,0.43,Annie Weather 1.0,2013-12-22 18:28:00,
2013-12-22 13:34:00,61.0,58.9,29.92,East,90,1.6,2.2,93,0.03,,,0.43,Annie Weather 1.0,2013-12-22 18:34:00,
2013-12-22 13:40:00,60.4,58.7,29.92,SE,135,3.1,5.4,94,0.01,,,0.43,Annie Weather 1.0,2013-12-22 18:40:00,
2013-12-22 13:46:00,60.8,58.8,29.93,East,90,3.1,3.8,93,0.01,,,0.43,Annie Weather 1.0,2013-12-22 18:46:00,
2013-12-22 13:52:00,60.8,58.8,29.92,SE,135,3.1,3.8,93,0.01,,,0.43,Annie Weather 1.0,2013-12-22 18:52:00,
2013-12-22 13:58:00,60.4,58.7,29.91,South,180,1.6,3.1,94,0.00,,,0.43,Annie Weather 1.0,2013-12-22 18:58:00,
2013-12-22 14:04:00,60.3,58.5,29.92,South,180,2.2,4.5,94,0.00,,,0.43,Annie Weather 1.0,2013-12-22 19:04:00,
2013-12-22 14:10:00,60.4,58.7,29.92,SE,135,2.2,3.8,94,0.00,,,0.43,Annie Weather 1.0,2013-12-22 19:10:00,
2013-12-22 14:16:00,60.3,58.5,29.92,South,180,3.1,3.8,94,0.00,,,0.43,Annie Weather 1.0,2013-12-22 19:16:00,
2013-12-22 14:22:00,60.1,58.0,29.92,South,180,3.1,3.8,93,0.00,,,0.43,Annie Weather 1.0,2013-12-22 19:22:00,
2013-12-22 14:28:00,60.1,58.0,29.93,SE,135,3.1,6.0,93,0.00,,,0.43,Annie Weather 1.0,2013-12-22 19:28:00,
2013-12-22 14:34:00,60.4,58.4,29.92,SE,135,1.6,3.1,93,0.00,,,0.43,Annie Weather 1.0,2013-12-22 19:34:00,
2013-12-22 14:40:00,60.4,58.4,29.92,East,90,0.7,2.2,93,0.00,,,0.43,Annie Weather 1.0,2013-12-22 19:40:00,
2013-12-22 14:46:00,60.4,58.4,29.92,East,90,3.1,5.4,93,0.00,,,0.43,Annie Weather 1.0,2013-12-22 19:46:00,
2013-12-22 14:52:00,60.4,58.4,29.93,SE,135,1.6,2.2,93,0.00,,,0.43,Annie Weather 1.0,2013-12-22 19:52:00,
2013-12-22 14:58:00,60.4,58.4,29.93,East,90,3.1,5.4,93,0.00,,,0.43,Annie Weather 1.0,2013-12-22 19:58:00,
2013-12-22 15:04:00,60.8,58.5,29.92,SE,135,0.7,2.2,92,0.00,,,0.43,Annie Weather 1.0,2013-12-22 20:04:00,
2013-12-22 15:10:00,60.6,58.6,29.93,SE,135,3.1,4.5,93,0.00,,,0.43,Annie Weather 1.0,2013-12-22 20:10:00,
2013-12-22 15:16:00,60.8,58.5,29.93,South,180,2.2,3.8,92,0.00,,,0.43,Annie Weather 1.0,2013-12-22 20:16:00,
2013-12-22 15:22:00,60.8,58.5,29.92,East,90,3.8,6.0,92,0.00,,,0.43,Annie Weather 1.0,2013-12-22 20:22:00,
2013-12-22 15:28:00,60.6,58.6,29.93,East,90,1.6,2.2,93,0.00,,,0.43,Annie Weather 1.0,2013-12-22 20:28:00,
2013-12-22 15:34:00,60.8,58.5,29.93,SE,135,3.1,5.4,92,0.00,,,0.43,Annie Weather 1.0,2013-12-22 20:34:00,
2013-12-22 15:40:00,60.8,58.2,29.93,SE,135,0.7,1.6,91,0.00,,,0.43,Annie Weather 1.0,2013-12-22 20:40:00,
2013-12-22 15:46:00,61.0,58.3,29.93,South,180,2.2,3.8,91,0.00,,,0.43,Annie Weather 1.0,2013-12-22 20:46:00,
2013-12-22 15:52:00,61.2,58.5,29.93,West,270,4.5,6.9,91,0.00,,,0.43,Annie Weather 1.0,2013-12-22 20:52:00,
2013-12-22 15:58:00,61.5,58.6,29.92,SE,135,2.2,3.1,90,0.00,,,0.43,Annie Weather 1.0,2013-12-22 20:58:00,
2013-12-22 16:04:00,62.4,59.1,29.93,East,90,3.8,6.0,89,0.01,,,0.44,Annie Weather 1.0,2013-12-22 21:04:00,
2013-12-22 16:10:00,62.8,58.5,29.92,South,180,3.8,6.9,86,0.01,,,0.44,Annie Weather 1.0,2013-12-22 21:10:00,
2013-12-22 16:16:00,62.8,58.2,29.92,East,90,2.2,3.8,85,0.01,,,0.44,Annie Weather 1.0,2013-12-22 21:16:00,
2013-12-22 16:22:00,63.3,58.4,29.91,South,180,6.0,9.2,84,0.01,,,0.44,Annie Weather 1.0,2013-12-22 21:22:00,
2013-12-22 16:28:00,63.0,58.0,29.91,SW,225,6.9,9.8,84,0.01,,,0.44,Annie Weather 1.0,2013-12-22 21:28:00,
2013-12-22 16:34:00,63.3,58.1,29.92,South,180,9.2,12.1,83,0.01,,,0.44,Annie Weather 1.0,2013-12-22 21:34:00,
2013-12-22 16:38:00,63.1,57.9,29.91,East,90,3.8,5.4,83,0.01,,,0.44,Annie Weather 1.0,2013-12-22 21:38:00,
2013-12-22 16:44:00,63.5,58.2,29.91,SE,135,3.1,3.8,83,0.01,,,0.44,Annie Weather 1.0,2013-12-22 21:44:00,
2013-12-22 16:50:00,63.1,57.9,29.91,South,180,2.2,3.1,83,0.01,,,0.44,Annie Weather 1.0,2013-12-22 21:50:00,
2013-12-22 16:56:00,63.1,57.9,29.91,South,180,3.8,5.4,83,0.01,,,0.44,Annie Weather 1.0,2013-12-22 21:56:00,
2013-12-22 17:02:00,63.1,57.6,29.92,SW,225,5.4,7.6,82,0.01,,,0.44,Annie Weather 1.0,2013-12-22 22:02:00,
2013-12-22 17:08:00,63.5,57.9,29.92,South,180,2.2,4.5,82,0.00,,,0.44,Annie Weather 1.0,2013-12-22 22:08:00,
2013-12-22 17:14:00,63.3,57.7,29.92,South,180,0.7,2.2,82,0.00,,,0.44,Annie Weather 1.0,2013-12-22 22:14:00,
2013-12-22 17:20:00,63.5,57.6,29.92,South,180,3.8,10.7,81,0.00,,,0.44,Annie Weather 1.0,2013-12-22 22:20:00,
2013-12-22 17:26:00,63.1,57.6,29.92,East,90,3.1,5.4,82,0.00,,,0.44,Annie Weather 1.0,2013-12-22 22:26:00,
2013-12-22 17:32:00,63.5,57.9,29.91,SE,135,3.1,4.5,82,0.00,,,0.44,Annie Weather 1.0,2013-12-22 22:32:00,
2013-12-22 17:38:00,63.1,57.2,29.89,SE,135,5.4,8.3,81,0.00,,,0.44,Annie Weather 1.0,2013-12-22 22:38:00,
2013-12-22 17:44:00,62.8,56.9,29.89,SE,135,3.8,6.0,81,0.00,,,0.44,Annie Weather 1.0,2013-12-22 22:44:00,
2013-12-22 17:50:00,62.1,56.5,29.90,SE,135,3.1,3.8,82,0.00,,,0.44,Annie Weather 1.0,2013-12-22 22:50:00,
2013-12-22 17:56:00,61.0,55.8,29.89,East,90,3.1,6.9,83,0.00,,,0.44,Annie Weather 1.0,2013-12-22 22:56:00,
2013-12-22 18:02:00,60.8,55.9,29.89,East,90,3.1,6.9,84,0.00,,,0.44,Annie Weather 1.0,2013-12-22 23:02:00,
2013-12-22 18:08:00,60.8,55.9,29.89,SE,135,1.6,3.8,84,0.00,,,0.44,Annie Weather 1.0,2013-12-22 23:08:00,
2013-12-22 18:14:00,61.3,56.5,29.90,South,180,0.7,3.8,84,0.00,,,0.44,Annie Weather 1.0,2013-12-22 23:14:00,
2013-12-22 18:20:00,61.3,56.5,29.91,West,270,1.6,3.8,84,0.00,,,0.44,Annie Weather 1.0,2013-12-22 23:20:00,
2013-12-22 18:26:00,63.3,58.1,29.90,South,180,5.4,9.2,83,0.00,,,0.44,Annie Weather 1.0,2013-12-22 23:26:00,
2013-12-22 18:32:00,62.6,57.0,29.88,SE,135,5.4,6.9,82,0.00,,,0.44,Annie Weather 1.0,2013-12-22 23:32:00,
2013-12-22 18:38:00,62.8,56.9,29.89,West,270,2.2,4.5,81,0.00,,,0.44,Annie Weather 1.0,2013-12-22 23:38:00,
2013-12-22 18:44:00,64.0,58.1,29.94,South,180,4.5,7.6,81,0.00,,,0.44,Annie Weather 1.0,2013-12-22 23:44:00,
2013-12-22 18:50:00,64.0,58.1,29.95,SW,225,5.4,9.2,81,0.00,,,0.44,Annie Weather 1.0,2013-12-22 23:50:00,
2013-12-22 18:56:00,63.9,57.9,29.95,SE,135,6.9,10.7,81,0.00,,,0.44,Annie Weather 1.0,2013-12-22 23:56:00,
2013-12-22 19:02:00,63.7,57.7,29.94,SW,225,3.8,6.0,81,0.00,,,0.44,Annie Weather 1.0,2013-12-23 00:02:00,
2013-12-22 19:08:00,63.3,57.4,29.91,East,90,1.6,3.1,81,0.00,,,0.44,Annie Weather 1.0,2013-12-23 00:08:00,
2013-12-22 19:14:00,63.0,57.0,29.89,SE,135,1.6,2.2,81,0.00,,,0.44,Annie Weather 1.0,2013-12-23 00:14:00,
2013-12-22 19:20:00,62.8,57.2,29.87,East,90,1.6,3.8,82,0.00,,,0.44,Annie Weather 1.0,2013-12-23 00:20:00,
2013-12-22 19:26:00,62.6,57.0,29.89,East,90,3.1,7.6,82,0.00,,,0.44,Annie Weather 1.0,2013-12-23 00:26:00,
2013-12-22 19:32:00,63.1,57.6,29.93,North,0,2.2,3.8,82,0.00,,,0.44,Annie Weather 1.0,2013-12-23 00:32:00,
2013-12-22 19:38:00,63.1,57.6,29.93,West,270,1.6,3.1,82,0.00,,,0.44,Annie Weather 1.0,2013-12-23 00:38:00,
2013-12-22 19:44:00,62.8,57.2,29.96,West,270,1.6,2.2,82,0.00,,,0.44,Annie Weather 1.0,2013-12-23 00:44:00,
2013-12-22 19:50:00,63.1,57.6,29.97,North,0,0.7,2.2,82,0.00,,,0.44,Annie Weather 1.0,2013-12-23 00:50:00,
2013-12-22 19:56:00,63.0,57.4,29.94,South,180,3.8,8.3,82,0.00,,,0.44,Annie Weather 1.0,2013-12-23 00:56:00,
2013-12-22 20:02:00,63.5,57.6,29.92,South,180,0.7,2.2,81,0.00,,,0.44,Annie Weather 1.0,2013-12-23 01:02:00,
2013-12-22 20:08:00,63.1,57.2,29.94,West,270,3.8,5.4,81,0.00,,,0.44,Annie Weather 1.0,2013-12-23 01:08:00,
2013-12-22 20:14:00,63.1,57.2,29.95,North,0,3.1,4.5,81,0.00,,,0.44,Annie Weather 1.0,2013-12-23 01:14:00,
2013-12-22 20:20:00,63.1,57.6,29.97,West,270,2.2,3.1,82,0.00,,,0.44,Annie Weather 1.0,2013-12-23 01:20:00,
2013-12-22 20:26:00,63.5,57.9,29.97,North,0,0.7,1.6,82,0.00,,,0.44,Annie Weather 1.0,2013-12-23 01:26:00,
2013-12-22 20:32:00,63.0,57.4,29.95,East,90,2.2,4.5,82,0.00,,,0.44,Annie Weather 1.0,2013-12-23 01:32:00,
2013-12-22 20:38:00,63.3,57.7,29.95,West,270,1.6,2.2,82,0.00,,,0.44,Annie Weather 1.0,2013-12-23 01:38:00,
2013-12-22 20:44:00,62.4,57.2,29.96,South,180,2.2,3.8,83,0.00,,,0.44,Annie Weather 1.0,2013-12-23 01:44:00,
2013-12-22 20:50:00,63.0,57.7,29.96,West,270,3.1,5.4,83,0.00,,,0.44,Annie Weather 1.0,2013-12-23 01:50:00,
2013-12-22 20:56:00,63.3,58.1,29.97,NW,315,4.5,6.9,83,0.00,,,0.44,Annie Weather 1.0,2013-12-23 01:56:00,
2013-12-22 21:02:00,63.1,57.9,29.96,West,270,5.4,7.6,83,0.00,,,0.44,Annie Weather 1.0,2013-12-23 02:02:00,
2013-12-22 21:08:00,63.1,57.9,29.93,West,270,5.4,7.6,83,0.00,,,0.44,Annie Weather 1.0,2013-12-23 02:08:00,
2013-12-22 21:14:00,62.6,57.4,29.92,North,0,0.7,1.6,83,0.00,,,0.44,Annie Weather 1.0,2013-12-23 02:14:00,
2013-12-22 21:20:00,62.6,57.4,29.94,South,180,0.0,1.6,83,0.00,,,0.44,Annie Weather 1.0,2013-12-23 02:20:00,
2013-12-22 21:26:00,62.6,57.4,29.95,South,180,0.7,2.2,83,0.00,,,0.44,Annie Weather 1.0,2013-12-23 02:26:00,
2013-12-22 21:32:00,62.1,57.2,29.97,South,180,1.6,3.1,84,0.00,,,0.44,Annie Weather 1.0,2013-12-23 02:32:00,
2013-12-22 21:38:00,62.8,57.9,29.96,West,270,1.6,3.8,84,0.00,,,0.44,Annie Weather 1.0,2013-12-23 02:38:00,
2013-12-22 21:44:00,62.6,57.4,29.95,South,180,0.0,0.0,83,0.00,,,0.44,Annie Weather 1.0,2013-12-23 02:44:00,
2013-12-22 21:50:00,63.3,58.1,29.96,South,180,3.8,6.9,83,0.00,,,0.44,Annie Weather 1.0,2013-12-23 02:50:00,
2013-12-22 21:56:00,63.0,57.7,29.96,South,180,6.9,13.0,83,0.00,,,0.44,Annie Weather 1.0,2013-12-23 02:56:00,
2013-12-22 22:02:00,63.0,57.4,29.96,West,270,0.7,2.2,82,0.00,,,0.44,Annie Weather 1.0,2013-12-23 03:02:00,
2013-12-22 22:08:00,63.3,57.7,29.95,SE,135,0.7,1.6,82,0.00,,,0.44,Annie Weather 1.0,2013-12-23 03:08:00,
2013-12-22 22:14:00,63.3,58.1,29.96,SW,225,1.6,3.1,83,0.00,,,0.44,Annie Weather 1.0,2013-12-23 03:14:00,
2013-12-22 22:20:00,63.0,57.7,29.96,South,180,3.1,5.4,83,0.00,,,0.44,Annie Weather 1.0,2013-12-23 03:20:00,
2013-12-22 22:26:00,63.3,58.1,29.97,SE,135,4.5,7.6,83,0.00,,,0.44,Annie Weather 1.0,2013-12-23 03:26:00,
2013-12-22 22:32:00,63.0,57.7,29.97,West,270,3.1,4.5,83,0.00,,,0.44,Annie Weather 1.0,2013-12-23 03:32:00,
2013-12-22 22:38:00,62.6,57.4,29.97,South,180,2.2,3.8,83,0.00,,,0.44,Annie Weather 1.0,2013-12-23 03:38:00,
2013-12-22 22:44:00,62.2,57.3,29.96,South,180,2.2,4.5,84,0.00,,,0.44,Annie Weather 1.0,2013-12-23 03:44:00,
2013-12-22 22:50:00,62.4,57.8,29.95,South,180,3.8,4.5,85,0.00,,,0.44,Annie Weather 1.0,2013-12-23 03:50:00,
2013-12-22 22:56:00,62.4,57.8,29.95,South,180,2.2,3.8,85,0.00,,,0.44,Annie Weather 1.0,2013-12-23 03:56:00,
2013-12-22 23:02:00,62.2,57.7,29.94,SE,135,0.7,1.6,85,0.00,,,0.44,Annie Weather 1.0,2013-12-23 04:02:00,
2013-12-22 23:08:00,62.2,57.7,29.95,SE,135,0.7,1.6,85,0.00,,,0.44,Annie Weather 1.0,2013-12-23 04:08:00,
2013-12-22 23:14:00,61.9,57.6,29.95,South,180,1.6,4.5,86,0.00,,,0.44,Annie Weather 1.0,2013-12-23 04:14:00,
2013-12-22 23:20:00,61.7,57.5,29.96,South,180,1.6,3.1,86,0.00,,,0.44,Annie Weather 1.0,2013-12-23 04:20:00,
2013-12-22 23:26:00,62.1,58.1,29.96,South,180,1.6,2.2,87,0.00,,,0.44,Annie Weather 1.0,2013-12-23 04:26:00,
2013-12-22 23:32:00,61.9,58.0,29.97,South,180,0.7,1.6,87,0.00,,,0.44,Annie Weather 1.0,2013-12-23 04:32:00,
2013-12-22 23:38:00,61.9,58.0,29.98,West,270,0.7,2.2,87,0.00,,,0.44,Annie Weather 1.0,2013-12-23 04:38:00,
2013-12-22 23:44:00,61.7,58.1,29.97,South,180,2.2,3.8,88,0.00,,,0.44,Annie Weather 1.0,2013-12-23 04:44:00,
2013-12-22 23:50:00,61.9,58.3,29.97,SE,135,1.6,2.2,88,0.00,,,0.44,Annie Weather 1.0,2013-12-23 04:50:00,
2013-12-22 23:56:00,61.7,58.1,29.97,South,180,4.5,6.9,88,0.00,,,0.44,Annie Weather 1.0,2013-12-23 04:56:00,